Lapse_Rate
6.8 6.8 6.7 6.8 6.8 6.8 6.8 6.8 6.9 6.9 6.9 6.9 6.6 6.5 6.4 6.4 6.4 6.5 6.5 6.7 6.9 6.8 6.7 6.7 6.8 6.9 6.9 6.8 6.8 6.6 6.6 6.7 6.9 6.9 6.9 7.1 7.0 7.0 6.9 6.9 6.8 7.1 7.2 7.3 7.6 7.6 7.6
6.8 6.8 6.9 6.9 6.9 6.9 6.9 6.9 6.9 7.0 7.0 6.9 6.9 6.9 6.8 6.6 6.5 6.5 6.4 6.5 6.7 6.7 6.9 6.8 6.7 6.8 7.0 7.3 6.9 6.7 6.9 6.8 6.9 7.0 6.9 7.0 7.1 7.2 6.8 6.6 6.6 6.8 7.0 7.1 7.4 7.3 7.4
6.8 6.8 6.9 6.9 7.0 7.0 6.9 6.9 7.0 7.1 7.0 7.0 7.0 7.1 6.9 6.8 6.9 6.8 6.6 6.6 6.6 6.6 6.7 6.9 6.9 6.9 7.1 7.1 7.2 7.0 7.0 6.9 7.0 6.9 6.9 6.9 6.8 6.9 6.7 6.8 6.7 6.6 6.9 7.1 7.3 7.3 7.3
6.7 6.8 6.8 6.8 6.9 6.9 7.0 7.1 7.0 6.9 7.1 7.1 7.1 7.1 7.1 7.0 7.0 7.0 6.9 6.8 6.8 6.7 6.7 6.8 6.9 6.9 7.3 7.4 7.3 7.6 7.2 7.1 7.2 7.0 6.6 6.3 6.3 6.3 6.6 6.4 6.8 6.7 6.9 7.5 7.4 7.4 7.4
6.7 6.7 6.7 6.8 6.8 6.8 6.9 6.8 6.9 7.0 7.0 7.0 7.1 7.2 7.1 7.1 7.1 7.2 7.1 6.9 6.9 6.9 6.8 6.8 6.8 6.8 7.3 7.3 7.5 7.3 7.3 7.4 7.2 6.9 6.6 6.4 6.4 6.3 6.4 7.0 7.4 7.2 7.6 7.8 8.0 7.5 7.6
6.5 6.7 6.8 6.7 6.7 6.7 6.8 6.8 6.9 6.9 6.9 7.0 7.0 7.1 7.1 7.1 7.2 7.3 7.2 7.1 7.0 6.9 7.0 6.9 6.9 6.9 7.2 7.1 7.2 7.2 7.3 7.2 7.4 7.1 6.7 6.4 6.3 6.5 6.7 7.3 7.6 7.8 7.6 8.5 8.1 8.1 7.7
6.5 6.6 6.7 6.8 6.8 6.8 6.9 6.8 6.8 6.9 7.0 7.0 7.0 7.1 7.1 7.1 7.0 7.3 7.4 7.2 7.2 7.1 7.1 7.1 7.0 7.0 7.2 7.4 7.3 7.1 7.1 6.9 7.1 7.0 6.5 6.5 6.8 6.7 7.1 7.1 7.7 8.4 8.1 8.3 8.1 8.5 7.9
6.5 6.7 6.8 6.7 6.6 6.6 6.6 6.7 6.8 6.8 6.9 7.0 7.0 7.1 7.2 7.1 7.0 7.1 7.3 7.4 7.3 7.0 7.3 7.1 7.3 7.2 7.4 7.2 7.2 7.3 7.2 6.9 6.9 6.7 6.7 6.4 6.6 7.2 7.2 7.3 7.2 7.5 8.1 8.3 8.4 7.9 7.7
6.6 6.6 6.7 6.8 6.8 6.8 6.9 6.9 6.8 6.8 6.8 6.9 7.0 7.2 7.3 7.2 7.0 6.9 7.0 7.1 7.1 7.2 7.0 7.7 7.6 7.4 7.9 7.4 7.3 7.5 7.5 7.2 7.0 6.9 6.6 6.8 7.1 7.1 7.0 7.4 7.5 7.7 7.8 8.0 8.3 8.4 8.0
6.2 6.3 6.5 6.6 6.7 6.6 6.7 6.7 6.7 6.9 7.0 7.0 7.0 7.2 7.4 7.4 7.3 7.1 7.0 6.9 7.0 6.9 6.7 6.9 7.8 7.9 8.0 7.9 7.4 8.0 7.5 7.4 6.8 6.9 7.2 7.0 7.4 7.0 6.9 7.2 7.6 8.0 7.8 8.0 8.2 8.3 8.6
5.8 5.8 5.9 6.1 6.2 6.2 6.4 6.4 6.5 6.6 6.8 7.1 7.2 7.2 7.4 7.6 7.6 7.4 7.1 6.9 6.7 6.6 6.2 7.1 7.2 7.5 7.8 7.8 7.2 8.1 7.9 7.7 7.1 7.2 7.4 7.0 6.9 6.8 6.9 7.0 7.5 7.7 8.2 7.9 8.4 8.4 8.4
5.4 5.5 5.6 5.7 5.8 6.0 6.2 6.3 6.4 6.6 6.8 7.1 7.3 7.6 7.8 7.8 7.8 7.7 7.2 6.8 6.6 6.3 5.8 7.2 7.3 7.5 7.8 8.2 7.8 7.7 8.1 7.8 7.5 7.6 7.2 7.4 7.2 7.3 7.3 7.6 7.7 8.0 8.0 8.0 8.0 8.2 8.4
5.2 5.3 5.5 5.6 5.7 6.0 6.1 6.2 6.4 6.6 6.8 6.9 7.2 7.6 7.6 7.7 7.6 7.6 7.2 6.6 6.2 6.2 7.4 7.3 7.4 7.5 7.7 7.8 8.1 8.0 8.0 7.7 7.2 7.3 7.1 7.2 7.0 6.9 7.1 7.3 7.4 7.7 7.8 8.2 8.3 8.4 8.0
5.3 5.4 5.5 5.6 5.6 5.7 5.8 5.9 6.1 6.1 6.3 6.6 7.1 7.3 7.4 7.3 7.2 7.1 6.7 6.1 6.2 7.9 7.5 7.8 7.9 7.7 7.7 7.9 7.6 7.6 8.1 7.7 7.3 7.6 8.4 7.9 7.8 7.1 6.8 7.2 7.2 7.3 7.8 7.9 8.3 9.2 8.8
5.3 5.4 5.5 5.5 5.6 5.6 5.7 5.8 6.0 6.0 6.0 6.2 6.8 6.8 6.8 6.5 5.9 5.8 5.4 5.4 7.0 8.0 8.7 8.0 7.6 7.8 7.8 8.1 7.8 8.1 8.0 8.3 7.9 7.7 7.9 8.3 7.7 8.0 7.5 7.5 7.7 7.4 7.4 7.9 8.3 7.6 8.7
5.3 5.5 5.5 5.5 5.6 5.7 5.8 5.7 5.7 5.7 5.8 5.9 6.0 6.5 5.9 5.4 4.9 4.7 4.6 5.5 6.1 7.8 7.5 7.9 7.8 8.0 8.0 8.1 8.6 8.4 8.3 7.9 8.0 7.8 7.7 8.4 8.2 8.0 7.8 7.9 7.8 8.1 7.7 7.7 7.8 7.9 8.0
5.2 5.3 5.3 5.4 5.4 5.4 5.5 5.3 5.3 5.0 4.9 5.1 5.1 4.9 4.3 4.0 3.6 3.7 3.8 4.6 4.9 6.0 6.0 6.3 6.8 7.0 7.8 7.9 8.5 9.4 8.5 8.1 8.1 7.9 7.7 8.0 8.1 8.4 8.0 7.4 7.9 7.5 7.7 7.6 8.0 8.0 8.6
5.3 5.3 5.2 5.2 5.1 5.2 5.2 4.9 4.8 4.6 4.4 4.3 4.1 4.2 4.3 4.0 3.7 3.5 3.6 3.9 4.8 5.3 5.0 5.4 5.6 5.8 6.3 6.8 7.9 8.4 8.5 8.2 8.0 8.1 7.8 7.7 7.9 8.5 7.4 8.0 8.1 8.3 7.7 7.7 7.9 8.0 7.6
5.2 5.2 5.1 5.0 5.0 5.1 5.0 4.9 4.8 4.4 4.2 3.9 3.9 3.9 4.1 4.1 3.7 4.0 4.1 4.1 4.3 4.3 4.5 4.9 5.3 5.6 5.8 6.3 7.2 7.5 8.0 7.8 8.0 7.9 7.8 7.9 8.1 8.2 8.8 8.2 7.6 7.6 7.9 8.0 8.0 8.5 8.2
5.3 5.2 5.0 5.0 5.0 5.0 4.9 4.8 4.7 4.4 4.3 4.2 3.9 3.7 4.0 4.3 4.5 4.4 4.8 4.8 5.0 5.3 5.9 6.1 6.1 6.1 5.9 6.1 6.5 6.6 7.3 7.8 7.9 7.8 7.9 8.5 8.1 8.4 8.4 7.4 7.7 7.3 7.5 7.8 7.9 7.9 7.6
5.1 5.0 5.0 5.0 5.0 4.9 4.9 4.9 4.7 4.4 4.5 4.5 4.5 4.4 4.9 4.8 5.4 5.9 6.2 6.2 6.4 6.5 7.3 7.4 7.4 6.7 6.4 6.2 6.4 6.5 6.6 7.1 7.4 8.0 8.3 8.3 8.2 8.4 7.9 8.5 8.7 7.9 7.9 7.8 7.5 7.1 7.9
4.9 4.9 5.1 5.0 4.8 4.7 4.7 4.9 4.9 4.5 4.8 4.9 5.3 5.7 6.2 6.4 6.3 6.5 6.8 6.5 6.8 7.2 7.4 7.1 7.6 7.6 7.4 6.6 6.4 6.9 7.8 7.7 8.5 8.1 8.1 8.3 8.5 8.4 8.2 8.4 8.7 8.4 8.1 8.1 7.8 7.9 8.0
4.8 5.0 4.9 4.9 4.8 4.6 4.8 4.7 4.5 4.7 5.4 5.9 6.5 6.8 7.0 7.1 6.9 7.2 6.9 6.7 7.5 7.4 7.8 7.4 7.4 7.6 7.5 7.7 7.1 6.8 7.2 6.8 6.7 6.8 7.3 8.0 8.3 8.6 8.2 8.2 8.5 8.5 8.2 8.0 7.8 7.8 7.9
4.9 4.8 4.8 4.6 4.6 4.6 3.9 4.1 4.5 5.2 6.3 6.7 7.0 7.5 7.7 7.8 7.4 7.1 7.0 6.6 6.7 7.3 7.2 8.0 7.7 7.6 8.1 7.7 7.7 8.0 7.0 6.1 6.3 6.7 6.9 7.2 8.2 8.5 8.3 8.9 8.5 7.5 8.1 8.1 8.1 7.9 7.8
4.6 4.4 4.4 4.5 4.5 4.6 4.2 4.7 5.3 6.3 6.9 7.1 7.5 7.7 7.6 7.7 7.6 7.5 7.5 7.1 6.9 6.9 7.1 7.1 7.7 7.3 7.8 7.5 7.4 7.9 7.4 6.8 6.4 6.4 7.1 7.0 7.6 8.2 8.4 8.6 8.4 7.9 7.9 7.8 7.9 7.7 7.8
4.0 4.1 4.2 4.4 4.5 4.5 4.9 5.7 6.4 6.8 7.3 7.6 7.8 7.8 7.9 7.7 7.7 7.3 6.9 6.7 6.8 6.8 7.0 7.3 7.4 6.7 7.2 7.6 7.4 7.3 7.0 7.1 7.9 7.1 7.0 6.9 7.2 7.8 8.1 8.8 9.2 8.1 7.8 8.2 8.3 8.1 8.2
3.7 3.9 4.2 4.4 4.9 5.1 6.0 6.6 6.9 7.2 7.7 7.7 7.6 7.9 8.0 7.7 7.8 7.6 7.3 7.3 7.1 6.8 6.5 6.9 6.7 7.1 7.3 7.3 7.3 7.7 7.1 7.2 7.2 7.3 6.9 7.1 7.1 7.1 8.2 8.8 9.2 8.2 8.1 8.3 8.2 7.8 8.3
3.5 3.7 4.2 4.7 5.6 6.3 6.6 7.0 7.2 7.4 7.4 7.3 7.7 7.9 7.9 7.6 7.6 7.5 7.8 7.2 7.0 6.6 6.6 6.6 6.5 7.1 7.2 7.1 7.4 7.7 7.9 7.4 7.2 6.5 7.3 7.6 7.7 6.8 6.4 7.8 8.8 8.0 8.0 8.0 8.3 8.4 8.5
3.9 4.6 5.1 5.7 6.3 6.9 7.1 7.2 7.3 7.4 7.6 7.7 7.5 7.9 7.8 7.2 7.5 7.5 7.6 7.4 6.9 6.8 6.4 6.5 6.7 6.7 7.0 7.4 7.2 7.7 8.3 8.0 7.5 7.3 6.9 7.3 7.9 8.0 7.4 6.8 7.5 7.8 7.8 8.2 8.4 8.3 8.4
Wind_Speed
16 17 17 18 19 20 20 21 22 20 19 20 21 23 25 27 29 30 30 29 29 29 28 25 18 9 4 5 9 2 1 4 17 17 17 14 13 13 15 13 9 11 10 6 6 8 10
17 17 18 18 19 21 21 22 22 21 23 23 23 23 25 27 29 31 33 33 30 27 26 22 12 4 4 8 2 3 2 10 17 22 19 15 10 12 9 9 15 5 8 8 4 6 7
17 18 18 19 20 21 22 22 24 25 24 24 25 25 24 27 31 33 36 37 32 29 21 10 2 4 5 12 1 6 5 5 11 19 18 16 8 11 6 11 6 6 10 7 10 8 6
15 16 17 19 20 21 22 22 24 24 25 26 27 27 27 27 31 34 39 38 32 22 8 2 7 3 7 1 3 10 9 5 10 8 11 10 9 11 9 2 7 11 10 12 13 10 6
16 17 18 18 19 19 20 21 22 24 25 26 26 27 30 28 30 33 40 38 22 6 2 8 3 3 8 2 6 6 11 7 13 13 6 6 10 12 9 14 13 14 15 16 10 11 7
16 17 18 18 18 19 20 21 22 24 24 25 28 28 30 31 33 38 40 30 4 3 4 5 3 5 5 3 6 4 7 10 8 15 11 12 10 13 13 15 18 19 18 11 17 11 12
16 17 18 18 18 19 19 20 20 21 23 24 26 28 30 34 30 36 24 3 5 3 5 8 6 7 12 8 4 5 6 13 11 16 17 17 14 19 22 20 19 14 14 19 17 6 9
16 17 17 17 18 19 20 20 20 20 21 23 24 26 28 34 30 23 14 7 6 5 11 11 16 19 21 11 8 12 8 13 13 17 19 10 21 20 19 18 19 15 16 18 14 6 10
17 17 17 17 18 18 19 20 20 20 20 22 24 25 28 34 29 6 10 11 4 3 6 9 10 12 13 17 11 17 13 18 17 20 21 22 12 20 15 17 22 20 20 17 14 10 11
16 16 17 17 18 18 19 19 19 20 19 20 21 24 27 33 6 11 4 14 15 4 5 5 5 6 6 10 11 18 20 12 16 23 21 20 21 15 23 26 23 22 18 17 15 14 15
18 18 19 20 20 20 20 20 20 20 19 19 19 20 22 12 8 7 11 20 14 3 5 3 3 2 1 10 7 13 20 18 23 20 20 23 16 20 22 25 24 23 17 18 17 16 16
19 20 21 22 22 23 23 22 23 23 21 18 18 17 20 5 6 8 19 22 3 2 8 4 2 4 5 12 10 1 13 18 13 21 22 23 15 20 23 19 23 20 9 12 10 12 16
19 21 21 22 22 22 22 22 21 22 23 20 18 16 13 7 6 15 17 7 4 4 2 9 14 10 14 10 9 14 13 21 17 19 25 22 21 14 11 19 17 22 16 12 13 14 15
19 20 21 21 21 21 22 21 21 20 20 21 21 20 8 7 8 9 7 5 7 14 21 16 18 17 18 19 18 19 18 21 29 25 14 22 20 27 17 24 19 23 21 11 17 14 16
20 20 23 22 23 21 19 19 18 17 17 16 15 6 7 4 5 3 4 9 11 13 14 18 20 22 26 20 20 15 24 25 26 30 25 18 29 18 19 19 24 23 23 21 18 6 11
20 20 22 23 24 21 17 18 17 16 17 16 5 5 7 5 7 4 6 19 18 23 24 19 22 14 24 28 24 22 20 21 27 28 26 18 16 18 22 19 22 21 17 15 13 19 18
19 21 23 23 21 20 17 15 15 14 14 11 4 5 1 4 7 5 12 12 18 27 26 10 25 24 23 22 27 25 25 24 19 25 26 26 15 14 15 23 26 12 17 18 19 16 16
22 20 22 22 20 18 17 16 14 14 14 7 3 4 4 8 5 3 11 20 12 29 26 25 29 23 25 25 22 29 31 26 19 20 26 31 16 15 24 23 26 28 25 22 12 19 16
22 23 22 21 22 18 17 17 15 14 11 4 3 6 6 6 7 12 19 23 24 27 29 28 29 28 24 27 22 23 26 28 18 15 22 24 20 16 18 13 13 20 26 26 23 16 22
22 23 23 22 22 19 19 18 17 15 14 3 3 3 4 7 12 17 19 24 23 22 27 31 28 28 28 31 23 16 20 19 16 23 21 19 23 27 20 31 17 19 25 27 24 17 17
23 21 23 24 23 21 19 19 18 17 14 4 4 6 11 9 10 14 16 16 23 24 21 29 26 33 31 27 27 26 27 23 14 9 8 19 23 27 31 28 20 21 22 28 27 29 25
25 23 23 24 24 23 19 20 20 20 18 6 5 3 6 14 20 20 20 23 27 30 26 29 21 28 28 34 27 23 10 11 12 2 13 16 20 25 26 26 26 24 25 27 32 29 32
24 24 23 24 25 25 22 20 20 21 16 4 4 5 6 13 18 16 17 18 11 15 19 23 30 26 29 29 28 31 22 18 19 16 12 12 16 15 22 23 26 23 25 28 23 24 25
25 24 24 25 26 24 22 22 21 22 21 6 4 4 5 12 15 19 24 25 26 25 23 27 23 16 28 26 25 24 20 22 20 19 14 12 19 14 15 19 21 22 24 25 23 21 24
25 25 25 25 25 25 24 23 23 23 24 9 8 6 4 10 16 21 24 22 24 24 23 20 27 28 24 27 19 17 18 23 24 24 18 15 13 11 13 15 11 13 8 22 24 23 21
25 25 25 25 26 25 26 24 25 24 25 12 9 8 4 5 16 23 24 23 18 15 22 27 25 18 12 7 16 15 10 10 8 6 11 14 11 9 12 19 23 18 13 10 15 20 26
27 26 26 25 26 27 26 25 25 25 25 14 7 16 4 4 12 16 16 14 13 12 13 7 8 13 16 6 12 16 13 5 2 9 9 10 8 9 8 14 15 7 9 9 16 9 17
26 26 27 26 26 27 26 24 27 26 25 12 8 15 9 3 15 18 23 18 14 10 9 4 7 7 11 7 8 13 13 17 16 11 12 10 10 7 5 5 8 6 8 10 2 1 11
25 26 27 27 26 27 26 21 28 25 25 22 9 10 12 7 7 10 18 21 20 21 10 3 4 4 4 8 5 9 13 14 20 16 18 11 11 8 5 6 1 2 4 3 1 8 11
Wind_Direction
24 20 17 14 12 12 12 13 13 5 353 352 352 350 349 346 341 338 333 328 327 320 314 316 315 299 262 227 254 53 309 180 178 189 189 193 205 217 221 214 192 231 257 280 286 240 247
29 26 24 18 13 11 10 10 9 10 11 5 353 346 344 341 338 335 329 327 325 318 312 311 311 260 226 249 18 16 98 161 181 187 195 193 213 218 251 225 216 213 257 262 243 216 196
24 22 22 20 18 17 15 12 10 7 6 2 358 353 341 339 336 333 328 324 323 319 315 310 207 234 245 252 295 139 96 150 201 195 193 197 206 196 203 217 215 225 236 218 217 207 204
22 22 18 19 16 13 13 13 11 7 3 358 356 353 347 337 334 332 326 321 321 320 323 117 163 248 262 222 256 246 251 240 194 204 228 191 206 223 230 112 193 214 228 222 188 193 185
19 16 13 12 11 12 11 10 9 4 1 359 355 351 347 339 334 331 322 319 320 359 94 141 193 268 269 263 240 239 212 207 185 205 220 179 200 216 189 214 211 207 224 219 166 204 188
9 11 9 7 8 8 7 7 4 1 360 358 355 351 347 337 334 332 325 317 275 277 199 233 241 259 240 330 324 312 195 181 168 185 187 197 205 210 220 212 219 216 222 220 234 175 223
9 8 6 4 4 3 3 3 1 359 358 357 355 353 346 336 335 333 332 346 350 186 358 301 297 280 280 315 282 238 185 190 175 186 200 202 214 214 208 220 240 256 213 228 216 183 236
5 2 359 358 359 358 358 356 355 356 356 356 355 354 348 334 334 341 21 67 57 315 302 282 261 257 262 273 275 257 194 189 193 201 203 189 225 223 229 220 231 224 224 232 243 173 240
359 356 355 355 352 351 353 352 353 352 354 354 353 356 350 335 328 0 55 56 349 297 268 288 242 253 236 201 227 240 195 214 207 208 203 216 224 227 215 216 222 222 228 230 235 194 236
352 353 352 351 352 349 346 348 348 348 348 352 351 355 350 334 309 337 81 354 342 186 280 267 230 247 209 219 241 225 201 204 217 220 214 235 230 211 213 222 215 221 220 240 241 241 250
349 347 347 347 346 345 342 342 342 343 344 349 351 355 352 10 324 340 338 326 331 214 312 69 194 30 186 204 350 210 198 206 229 213 204 224 217 207 221 220 216 233 215 228 236 247 252
345 344 341 342 341 340 342 341 338 338 339 343 351 354 346 5 314 335 323 314 253 227 242 285 244 224 208 219 238 358 195 225 230 229 218 238 209 223 226 225 220 227 206 218 231 244 239
341 341 339 337 335 332 332 333 330 330 331 335 346 349 333 323 326 320 316 294 181 194 272 253 249 229 241 237 228 225 204 203 204 206 224 219 223 222 226 214 213 217 210 223 226 224 240
334 336 330 331 330 327 324 324 324 323 326 328 338 335 340 294 288 311 303 224 204 237 240 272 290 271 255 249 240 223 226 223 218 217 223 220 219 213 196 213 198 206 205 211 222 227 232
328 330 329 332 330 325 320 318 317 315 317 323 328 336 316 290 254 226 243 214 210 244 246 252 260 253 255 248 245 226 222 229 223 219 224 218 230 201 208 204 216 201 214 218 246 293 267
323 323 323 327 328 325 312 313 312 314 321 334 323 318 278 249 214 182 207 228 233 250 274 280 268 257 252 243 235 233 230 234 236 221 225 228 241 208 202 204 213 213 211 207 227 229 234
318 315 317 325 327 332 320 307 306 304 312 340 303 302 89 257 182 206 224 232 261 263 274 283 262 268 273 263 253 240 231 237 238 222 214 229 225 202 194 207 208 192 213 212 210 219 228
318 308 313 321 320 324 324 327 317 308 308 292 281 267 112 171 220 214 241 246 254 266 271 270 262 267 276 271 275 247 244 236 213 223 210 218 219 219 211 218 219 215 213 203 209 206 232
315 309 308 312 315 317 319 318 311 313 308 294 247 262 209 239 252 252 259 263 268 267 258 262 266 254 260 262 269 258 253 244 252 241 213 212 220 223 218 205 218 229 212 216 222 228 221
302 306 303 304 309 308 311 308 309 311 309 278 251 261 219 215 246 265 273 271 269 264 266 258 260 261 267 253 263 269 267 247 246 229 227 214 218 219 215 218 196 213 217 218 212 222 222
298 296 297 303 303 300 300 301 296 299 287 278 211 235 243 254 241 241 253 266 269 274 270 256 247 249 247 259 248 258 257 265 244 225 227 217 218 225 230 226 216 211 211 210 217 226 223
296 297 293 295 297 297 294 298 299 294 301 267 260 237 238 251 257 264 264 264 267 271 267 261 261 257 248 237 247 256 266 315 251 200 215 222 221 226 231 232 224 222 214 211 217 221 231
292 296 294 288 291 292 288 293 292 291 300 270 227 229 241 245 249 256 257 265 273 301 295 265 260 250 257 244 236 248 268 283 288 288 285 218 220 214 226 220 224 227 221 213 213 222 226
291 293 293 293 294 291 287 290 294 292 288 281 250 254 232 242 245 251 261 260 265 273 267 277 271 272 255 261 249 255 264 272 271 271 257 267 224 206 221 208 223 228 233 233 231 224 227
288 294 293 293 292 292 290 285 290 293 289 279 267 222 226 250 253 264 265 268 271 266 262 260 265 251 268 266 251 264 244 266 268 260 249 233 245 209 214 203 208 192 218 210 221 224 218
288 292 293 292 292 290 289 288 288 293 292 285 287 221 213 249 245 256 267 269 274 282 275 258 253 244 241 244 217 214 211 201 190 244 219 226 242 248 198 210 219 226 186 202 223 231 222
290 284 289 291 291 289 290 291 288 292 295 289 285 207 212 243 248 260 260 267 265 265 265 295 298 252 199 214 221 208 216 209 238 219 179 187 207 220 206 201 207 113 147 176 191 234 173
292 283 287 288 290 289 288 294 290 292 297 304 286 216 207 251 263 267 264 259 259 242 295 306 319 228 187 216 213 215 214 213 219 233 265 197 183 186 233 244 194 156 141 197 32 289 174
291 289 285 285 288 289 288 292 290 292 299 301 287 219 206 235 261 290 274 268 265 271 266 233 282 307 235 211 229 233 223 204 217 235 233 243 244 216 226 184 66 92 29 10 49 141 152